Location: Sternwarte Stuttgart
(48.7670°N, 9.1830°E)
Time: 18:27:22
(UTC+01:00)

ISS - All Passes

Search period start: 24 January 2017 00:00
Search period end: 03 February 2017 00:00
Orbit: 399 x 409 km, 51.6° (Epoch: 25 January)

Date Brightness Start Highest point End Pass type
(mag) Time Alt. Az. Time Alt. Az. Time Alt. Az.
24 Jan - 01:22:12 10° WNW 01:25:25 55° N 01:28:37 10° E night (unlit)
24 Jan - 02:58:44 10° WNW 03:01:55 50° SSW 03:05:04 10° SE night (unlit)
24 Jan - 21:17:07 10° SSW 21:20:02 30° SE 21:22:57 10° E night (unlit)
24 Jan - 22:53:05 10° W 22:56:22 70° NNW 22:59:37 10° ENE night (unlit)
25 Jan - 00:29:54 10° WNW 00:33:05 49° N 00:36:16 10° E night (unlit)
25 Jan - 02:06:28 10° WNW 02:09:43 77° SSW 02:12:57 10° ESE night (unlit)
25 Jan - 03:43:38 10° W 03:45:47 16° SW 03:47:55 10° S night (unlit)
25 Jan - 20:25:34 10° S 20:27:58 19° SE 20:30:21 10° E night (unlit)
25 Jan - 22:00:49 10° WSW 22:04:04 86° SSE 22:07:21 10° ENE night (unlit)
25 Jan - 23:37:34 10° W 23:40:44 48° N 23:43:55 10° ENE night (unlit)
26 Jan - 01:14:11 10° WNW 01:17:27 76° NNE 01:20:42 10° ESE night (unlit)
26 Jan - 02:50:56 10° W 02:53:43 26° SW 02:56:30 10° SSE night (unlit)
26 Jan - 19:34:45 10° SSE 19:35:56 12° SE 19:37:07 10° ESE visible
26 Jan - 21:08:38 10° SW 21:11:50 57° SSE 21:15:03 10° ENE night (unlit)
26 Jan - 22:45:10 10° W 22:48:23 53° N 22:51:35 10° ENE night (unlit)
27 Jan - 00:21:55 10° WNW 00:25:08 59° NNE 00:28:22 10° E night (unlit)
27 Jan - 01:58:28 10° WNW 02:01:34 42° SSW 02:04:41 10° SE night (unlit)
27 Jan - 20:16:38 10° SW 20:19:39 36° SSE 20:22:41 10° E visible
27 Jan - 21:52:47 10° W 21:56:02 64° NNW 21:59:17 10° ENE night (unlit)
27 Jan - 23:29:35 10° WNW 23:32:47 50° N 23:35:59 10° E night (unlit)
28 Jan - 01:06:07 10° WNW 01:09:22 67° SSW 01:12:35 10° ESE night (unlit)
28 Jan - 02:43:36 10° WSW 02:45:21 14° SW 02:47:06 10° S night (unlit)
28 Jan - 19:24:53 10° SSW 19:27:31 22° SE 19:30:09 10° E visible
28 Jan - 21:00:26 10° WSW 21:03:42 84° NNW 21:06:59 10° ENE visible
28 Jan - 22:37:13 10° WNW 22:40:23 48° N 22:43:34 10° ENE night (unlit)
29 Jan - 00:13:49 10° WNW 00:17:05 84° NNE 00:20:20 10° ESE night (unlit)
29 Jan - 01:50:39 10° W 01:53:17 22° SW 01:55:53 10° SSE night (unlit)
29 Jan - 18:33:39 10° S 18:35:26 14° SE 18:37:13 10° ESE visible
29 Jan - 20:08:10 10° WSW 20:11:25 67° SSE 20:14:40 10° ENE visible
29 Jan - 21:44:48 10° W 21:48:00 50° N 21:51:12 10° ENE night (unlit)
29 Jan - 23:21:29 10° WNW 23:24:45 63° NNE 23:27:59 10° E night (unlit)
30 Jan - 00:58:06 10° W 01:01:07 36° SSW 01:04:08 10° SE night (unlit)
30 Jan - 19:16:03 10° SW 19:19:10 42° SSE 19:22:17 10° ENE visible
30 Jan - 20:52:22 10° W 20:55:36 59° NNW 20:58:50 10° ENE visible
30 Jan - 22:29:09 10° WNW 22:32:21 53° N 22:35:34 10° E night (unlit)
31 Jan - 00:05:41 10° WNW 00:08:54 57° SSW 00:12:05 10° SE night (unlit)
31 Jan - 01:43:38 10° WSW 01:44:48 11° SW 01:45:57 10° SSW night (unlit)
31 Jan - 18:24:09 10° SSW 18:26:58 26° SE 18:29:47 10° E visible
31 Jan - 19:59:57 10° WSW 20:03:14 76° NNW 20:06:30 10° ENE visible
31 Jan - 21:36:45 10° WNW 21:39:56 48° N 21:43:07 10° ENE night (unlit)
31 Jan - 23:13:19 10° WNW 23:16:36 86° SSW 23:19:50 10° ESE night (unlit)
01 Feb - 00:50:19 10° W 00:52:42 19° SW 00:55:06 10° S night (unlit)
01 Feb - 17:32:39 10° S 17:34:49 17° SE 17:36:59 10° E daylight
01 Feb - 19:07:36 10° WSW 19:10:52 77° SSE 19:14:09 10° ENE visible
01 Feb - 20:44:18 10° W 20:47:30 49° N 20:50:42 10° ENE visible
01 Feb - 22:20:58 10° WNW 22:24:14 69° NNE 22:27:29 10° E night (unlit)
01 Feb - 23:57:37 10° W 00:00:33 30° SW 00:03:27 10° SSE night (unlit)
02 Feb - 18:15:23 10° SW 18:18:34 50° SSE 18:21:45 10° ENE visible
02 Feb - 19:51:50 10° W 19:55:04 55° N 19:58:17 10° ENE visible
02 Feb - 21:28:35 10° WNW 21:31:48 55° N 21:35:02 10° E night (unlit)
02 Feb - 23:05:08 10° WNW 23:08:18 49° SSW 23:11:27 10° SE night (unlit)
